CW6261 Weather Reports


Display with metric or nautical units.
time (UTC)temp
F
wind
direction
speed
MPH
gust
MPH
rain 1hr
in
rain 24hr
in
rain mn
in
humidity
%
barometer
mb
20260505022702 75 204 5.0 8.0 0.00 0.00 0.00 73 100.8
20260505022202 75 179 6.0 12.0 0.00 0.00 0.00 72 100.8
20260505021702 75 191 2.0 12.0 0.00 0.00 0.00 71 100.8
20260505021202 75 187 4.0 12.0 0.00 0.00 0.00 71 100.8
20260505020702 75 188 7.0 10.0 0.00 0.00 0.00 70 100.8
20260505020202 75 208 4.0 6.0 0.00 0.00 0.00 68 100.9
20260505015702 75 205 4.0 7.0 0.00 0.00 0.00 68 100.9
20260505015202 75 196 3.0 4.0 0.00 0.00 0.00 67 100.9
20260505014702 75 195 2.0 8.0 0.00 0.00 0.00 67 100.9
20260505014202 76 193 4.0 5.0 0.00 0.00 0.00 66 100.9
20260505013702 76 209 4.0 12.0 0.00 0.00 0.00 66 100.9
20260505013202 76 236 3.0 6.0 0.00 0.00 0.00 65 100.9
20260505012702 76 234 2.0 5.0 0.00 0.00 0.00 64 100.8
20260505012202 76 191 4.0 8.0 0.00 0.00 0.00 64 100.8
20260505011205 77 201 2.0 7.0 0.00 0.00 0.00 63 100.8
20260505010702 77 236 5.0 7.0 0.00 0.00 0.00 63 100.8
20260505010202 77 233 5.0 12.0 0.00 0.00 0.00 63 100.8
20260505005702 77 208 3.0 7.0 0.00 0.00 0.00 62 100.8
20260505005202 77 238 2.0 6.0 0.00 0.00 0.00 62 100.8
20260505004702 77 195 2.0 6.0 0.00 0.00 0.00 62 100.8
20260505004202 78 245 2.0 8.0 0.00 0.00 0.00 61 100.8
20260505003703 78 231 5.0 14.0 0.00 0.00 0.00 60 100.8
20260505003202 78 238 5.0 13.0 0.00 0.00 0.00 60 100.8
20260505002202 78 244 4.0 7.0 0.00 0.00 0.00 59 100.8
20260505001203 78 200 2.0 11.0 0.00 0.00 0.00 59 100.8
20260505000702 79 169 5.0 6.0 0.00 0.00 0.00 59 100.8
20260505000204 79 223 6.0 10.0 0.00 0.00 0.00 59 100.8
20260504235702 79 208 5.0 14.0 0.00 0.00 0.00 59 100.8
20260504235202 79 201 9.0 15.0 0.00 0.00 0.00 59 100.8
20260504234704 79 222 4.0 14.0 0.00 0.00 0.00 59 100.8
20260504234202 79 200 5.0 8.0 0.00 0.00 0.00 59 100.8
20260504233704 79 233 3.0 11.0 0.00 0.00 0.00 58 100.8
20260504233201 80 178 8.0 15.0 0.00 0.00 0.00 57 100.8
20260504232702 79 208 3.0 7.0 0.00 0.00 0.00 58 100.8
20260504232202 79 210 6.0 13.0 0.00 0.00 0.00 57 100.8
20260504231704 79 213 9.0 11.0 0.00 0.00 0.00 58 100.9
20260504231202 79 215 6.0 16.0 0.00 0.00 0.00 58 100.9
20260504230202 79 186 7.0 11.0 0.00 0.00 0.00 57 100.8
20260504225702 80 202 4.0 12.0 0.00 0.00 0.00 56 100.8
20260504224702 79 190 3.0 12.0 0.00 0.00 0.00 56 100.8
20260504224202 80 233 4.0 10.0 0.00 0.00 0.00 56 100.8
20260504223202 81 199 7.0 10.0 0.00 0.00 0.00 55 100.8
20260504222702 80 194 4.0 8.0 0.00 0.00 0.00 56 100.9
20260504222203 80 211 6.0 11.0 0.00 0.00 0.00 55 100.9
20260504221203 80 214 6.0 10.0 0.00 0.00 0.00 56 100.9
20260504220702 80 208 4.0 12.0 0.00 0.00 0.00 56 100.9
20260504220203 81 245 5.0 12.0 0.00 0.00 0.00 55 100.8
20260504215702 81 183 8.0 13.0 0.00 0.00 0.00 55 100.8
20260504215203 81 241 5.0 8.0 0.00 0.00 0.00 56 100.8
20260504214702 80 238 5.0 13.0 0.00 0.00 0.00 56 100.9
20260504214202 80 210 7.0 11.0 0.00 0.00 0.00 56 100.9
20260504213703 80 163 2.0 15.0 0.00 0.00 0.00 56 100.9
20260504213203 80 186 4.0 9.0 0.00 0.00 0.00 56 100.9
20260504212702 80 212 10.0 11.0 0.00 0.00 0.00 56 101.0
20260504212202 80 212 4.0 9.0 0.00 0.00 0.00 56 101.0
20260504211703 80 224 11.0 12.0 0.00 0.00 0.00 55 101.0
20260504211202 80 187 8.0 9.0 0.00 0.00 0.00 55 101.0
20260504210702 80 226 6.0 11.0 0.00 0.00 0.00 56 101.0
20260504205702 80 194 4.0 11.0 0.00 0.00 0.00 55 100.9
20260504205202 79 217 4.0 12.0 0.00 0.00 0.00 56 100.9
20260504204702 79 209 5.0 13.0 0.00 0.00 0.00 57 101.0
20260504203704 79 183 6.0 15.0 0.00 0.00 0.00 57 101.0
20260504203202 78 222 5.0 11.0 0.00 0.00 0.00 58 101.0
20260504202702 79 212 4.0 13.0 0.00 0.00 0.00 56 101.0
20260504202202 78 251 3.0 10.0 0.00 0.00 0.00 57 101.0
20260504201702 80 191 8.0 15.0 0.00 0.00 0.00 55 101.0
20260504200702 79 221 11.0 12.0 0.00 0.00 0.00 56 101.0
20260504200202 79 249 4.0 7.0 0.00 0.00 0.00 56 101.0
20260504195703 79 226 5.0 6.0 0.00 0.00 0.00 56 101.0
20260504194702 79 161 8.0 12.0 0.00 0.00 0.00 57 101.0
20260504193202 78 159 2.0 11.0 0.00 0.00 0.00 57 101.0
20260504192702 78 225 7.0 8.0 0.00 0.00 0.00 58 101.1
20260504192202 78 205 4.0 12.0 0.00 0.00 0.00 57 101.1
20260504191703 78 243 4.0 8.0 0.00 0.00 0.00 58 101.1
20260504190702 78 202 6.0 17.0 0.00 0.00 0.00 58 101.1
20260504190203 77 218 2.0 13.0 0.00 0.00 0.00 59 101.1
20260504185702 77 188 5.0 16.0 0.00 0.00 0.00 59 101.1
20260504185203 77 206 5.0 10.0 0.00 0.00 0.00 58 101.1
20260504184702 77 208 4.0 8.0 0.00 0.00 0.00 58 101.1
20260504184202 77 228 3.0 12.0 0.00 0.00 0.00 58 101.1
20260504183703 76 236 4.0 10.0 0.00 0.00 0.00 61 101.1
20260504183202 76 190 7.0 13.0 0.00 0.00 0.00 60 101.1
20260504181703 76 155 4.0 6.0 0.00 0.00 0.00 60 101.2
20260504181202 76 239 2.0 9.0 0.00 0.00 0.00 61 101.2
20260504180702 76 189 6.0 10.0 0.00 0.00 0.00 61 101.2
20260504175703 74 234 3.0 9.0 0.00 0.00 0.00 63 101.2
20260504175202 73 249 4.0 7.0 0.00 0.00 0.00 65 101.2
20260504174703 74 240 3.0 11.0 0.00 0.00 0.00 64 101.2
20260504174203 74 243 1.0 8.0 0.00 0.00 0.00 63 101.2
20260504173703 74 240 3.0 11.0 0.00 0.00 0.00 64 101.2
20260504173202 73 236 3.0 11.0 0.00 0.00 0.00 66 101.2
20260504172703 72 263 3.0 10.0 0.00 0.00 0.00 66 101.3
20260504172203 73 279 2.0 6.0 0.00 0.00 0.00 66 101.3
20260504171702 73 232 2.0 9.0 0.00 0.00 0.00 65 101.3
20260504171202 72 252 5.0 8.0 0.00 0.00 0.00 67 101.3
20260504170703 72 243 6.0 11.0 0.00 0.00 0.00 66 101.3
20260504170202 72 210 5.0 8.0 0.00 0.00 0.00 66 101.3
20260504160202 72 244 8.0 9.0 0.00 0.00 0.00 66 101.3
20260504150203 68 242 4.0 12.0 0.00 0.00 0.00 70 101.4
20260504141202 66 207 7.0 10.0 0.00 0.00 0.00 73 101.4
20260504140702 65 203 5.0 12.0 0.00 0.00 0.00 74 101.4
20260504130702 63 205 2.0 5.0 0.00 0.00 0.00 79 101.4
20260504130201 62 200 2.0 6.0 0.00 0.00 0.00 80 101.4
20260504120202 59 187 4.0 7.0 0.00 0.00 0.00 83 101.3
20260504110702 61 195 4.0 6.0 0.00 0.00 0.00 79 101.3
20260504100202 61 194 2.0 4.0 0.00 0.00 0.00 78 101.4
20260504081702 62 175 3.0 6.0 0.00 0.00 0.00 74 101.4
20260504081202 62 189 6.0 7.0 0.00 0.00 0.00 74 101.4
20260504080702 62 193 1.0 8.0 0.00 0.00 0.00 74 101.4
20260504080203 63 181 4.0 5.0 0.00 0.00 0.00 73 101.4
20260504070202 64 200 3.0 5.0 0.00 0.00 0.00 70 101.5
20260504060202 64 184 3.0 9.0 0.00 0.00 0.00 65 101.6
20260504050703 64 170 2.0 6.0 0.00 0.00 0.00 63 101.6
20260504050202 64 148 2.0 4.0 0.00 0.00 0.00 62 101.6
20260504045703 65 180 3.0 5.0 0.00 0.00 0.00 62 101.6
20260504045202 65 143 2.0 6.0 0.00 0.00 0.00 61 101.6
20260504044202 66 186 5.0 6.0 0.00 0.00 0.00 59 101.6
20260504043702 66 178 5.0 13.0 0.00 0.00 0.00 59 101.6
20260504043202 65 197 2.0 3.0 0.00 0.00 0.00 58 101.6
20260504042702 66 192 5.0 5.0 0.00 0.00 0.00 57 101.6
20260504042202 66 170 6.0 10.0 0.00 0.00 0.00 57 101.6
20260504041702 66 184 2.0 6.0 0.00 0.00 0.00 57 101.6
20260504041202 66 175 3.0 9.0 0.00 0.00 0.00 57 101.6
20260504040702 65 177 3.0 5.0 0.00 0.00 0.00 58 101.6
20260504040202 64 163 4.0 5.0 0.00 0.00 0.00 59 101.7
20260504035702 64 176 2.0 4.0 0.00 0.00 0.00 61 101.7
20260504035202 63 172 1.0 1.0 0.00 0.00 0.00 61 101.7
20260504034203 64 108 0.0 2.0 0.00 0.00 0.00 59 101.7
20260504033202 65 140 0.0 1.0 0.00 0.00 0.00 57 101.7
20260504032702 65 140 1.0 1.0 0.00 0.00 0.00 56 101.6
20260504032202 65 174 1.0 2.0 0.00 0.00 0.00 54 101.6
20260504031702 66 111 1.0 1.0 0.00 0.00 0.00 54 101.6
20260504031203 66 137 1.0 2.0 0.00 0.00 0.00 53 101.6
20260504030202 67 213 1.0 2.0 0.00 0.00 0.00 50 101.6
20260504025703 67 180 1.0 1.0 0.00 0.00 0.00 51 101.6
20260504025203 67 169 1.0 2.0 0.00 0.00 0.00 50 101.6
20260504024703 67 174 1.0 2.0 0.00 0.00 0.00 50 101.6
20260504024203 68 142 1.0 1.0 0.00 0.00 0.00 49 101.6
20260504023702 68 210 1.0 2.0 0.00 0.00 0.00 48 101.6
20260504023202 68 216 2.0 3.0 0.00 0.00 0.00 47 101.6